Wind_Speed
35 37 40 41 41 39 37 38 39 40 45 44 39 38 36 35 34 34 34 33 33 33 32 32 31 31 31 32 33 33 32 32 32 34 35 38 39 39 40 39 38 37 36 34 32 30 28 26 24 23 21 19 17 15 13 12 10 9 8 7 5 4 4 4 5 5 4 3 3 4 6 6 6 5 4 4 3 3 3 3 3 3 4 5 6 6 6 6
35 37 41 42 42 40 38 39 40 41 46 46 40 38 36 35 35 35 35 34 34 33 33 33 32 31 31 31 32 33 33 32 32 33 35 37 38 39 39 39 38 37 36 35 33 30 28 26 25 23 21 19 18 16 14 13 11 11 10 7 5 4 5 6 5 4 4 3 3 5 6 6 5 4 3 3 2 2 3 3 4 4 4 5 6 6 6 7
36 37 41 43 43 42 40 40 42 42 46 45 40 38 37 37 36 36 36 35 35 34 33 33 33 32 32 31 31 32 32 33 33 34 35 36 37 38 38 38 38 37 36 35 33 32 30 28 26 24 22 20 19 17 15 15 13 12 11 6 4 7 8 7 5 5 4 4 4 5 6 6 4 3 2 2 2 2 2 3 4 4 4 5 5 6 7 7
37 37 41 44 44 43 42 42 43 44 45 43 40 39 39 39 38 37 37 36 35 35 34 33 33 33 32 31 31 30 31 32 34 35 36 36 37 38 38 38 38 38 37 36 34 32 31 29 27 25 23 21 20 18 17 16 15 14 11 6 7 10 10 8 7 6 5 4 5 5 6 5 3 2 1 1 1 2 2 3 5 4 4 5 6 6 7 7
38 38 40 44 45 44 44 43 45 46 46 43 42 41 41 40 40 38 37 36 36 35 34 33 33 32 32 31 30 30 30 31 33 34 36 37 37 38 38 38 38 38 38 36 35 33 32 30 28 26 25 23 21 20 18 17 17 15 11 10 12 12 11 9 8 6 5 5 5 5 5 4 3 1 1 1 2 2 2 3 5 6 5 5 6 7 7 7
40 39 41 44 46 46 46 45 46 48 47 44 43 43 42 42 41 40 38 37 36 35 34 33 32 32 31 31 31 30 30 31 32 33 35 36 37 38 38 38 38 38 38 37 35 34 32 31 29 28 26 25 23 21 20 19 18 15 13 13 13 13 11 10 8 6 6 6 5 5 5 4 3 2 1 1 3 2 2 2 3 5 6 5 6 7 7 8
42 40 41 44 46 47 47 47 48 50 49 46 44 44 44 43 42 41 39 38 37 35 34 33 32 32 31 31 31 31 30 30 31 32 34 35 36 37 37 38 38 38 38 37 36 34 33 31 30 29 27 25 23 22 22 21 19 15 14 14 14 14 12 10 9 7 6 6 6 5 5 4 3 3 0 1 3 2 2 2 3 4 6 6 6 7 8 8
43 41 42 44 47 48 49 48 49 51 51 48 47 46 46 44 43 42 40 39 37 36 34 33 32 32 31 31 31 31 31 30 31 32 33 33 35 36 36 37 37 37 37 36 35 34 33 32 31 29 27 25 23 23 23 22 19 16 16 16 16 15 13 11 10 8 7 6 6 6 6 5 5 3 1 1 2 2 2 2 3 4 5 6 7 8 8 9
45 43 42 45 48 49 50 50 50 52 52 51 50 49 47 46 44 42 41 39 38 36 35 34 33 32 32 32 31 30 30 30 30 31 32 32 33 34 35 36 36 36 36 35 35 34 33 32 30 28 27 26 25 25 24 22 19 17 18 18 17 15 13 12 10 9 8 7 8 7 6 6 6 4 2 2 2 2 2 2 3 4 5 7 8 8 9 10
46 45 44 45 48 50 52 51 51 53 53 53 52 51 49 47 46 43 42 40 39 37 36 35 33 33 33 32 31 30 30 30 30 31 31 31 32 33 34 34 34 35 35 34 34 34 33 32 30 29 27 26 25 25 24 22 19 19 20 19 17 16 14 12 11 10 9 9 9 8 7 8 7 5 3 4 3 2 3 3 3 4 5 6 8 10 10 11
47 46 45 45 48 51 53 53 53 54 54 54 53 52 51 49 47 45 43 41 40 38 36 35 34 34 33 32 31 30 30 31 30 31 31 31 31 31 32 32 33 33 33 33 34 33 32 31 30 29 28 26 26 26 25 23 21 22 21 19 18 16 14 13 12 11 10 10 10 9 9 9 8 6 5 5 4 3 4 4 4 4 5 6 8 9 11 12
49 48 47 46 48 50 53 54 54 55 56 55 55 54 52 50 48 46 44 43 41 39 37 36 35 34 33 32 31 30 31 31 30 30 31 31 31 30 30 30 31 31 32 32 32 31 31 31 30 30 28 28 28 27 26 24 23 23 22 19 18 16 15 14 13 12 12 12 11 10 10 10 10 8 7 6 5 4 4 4 4 4 5 6 8 9 11 13
50 49 48 47 48 50 53 55 55 56 57 57 56 55 54 52 50 48 46 44 42 40 38 37 36 35 34 33 32 31 30 30 30 30 31 31 31 31 30 30 30 30 30 30 30 30 30 31 30 29 28 29 29 28 26 25 24 24 23 20 18 17 16 15 14 14 14 13 13 12 10 11 10 9 8 7 5 4 3 3 4 5 5 6 8 10 12 13
51 50 49 48 48 50 52 55 56 56 57 58 58 57 56 54 52 50 48 46 44 42 40 38 37 36 35 34 32 31 30 30 30 30 31 31 31 31 30 30 29 29 29 30 30 30 30 30 30 29 29 29 29 29 27 27 26 25 23 21 20 19 17 17 16 15 15 15 14 13 11 11 10 9 8 6 5 5 3 3 4 5 6 8 9 11 13 15
52 50 50 49 49 50 51 55 57 57 57 58 59 58 57 55 53 52 50 48 46 43 41 40 39 38 36 35 33 31 30 30 30 31 31 31 31 31 31 30 29 29 29 30 30 30 30 31 30 30 30 30 30 30 29 28 27 26 24 23 21 20 18 18 17 16 17 17 16 14 12 11 10 9 9 7 6 6 5 5 5 6 8 9 11 12 14 16
52 51 51 50 50 50 51 54 57 58 58 59 60 60 58 57 55 53 52 49 47 45 43 42 41 40 38 36 34 32 31 30 30 31 31 31 31 31 30 30 29 29 29 29 29 30 31 31 32 31 31 32 32 31 30 29 28 27 26 24 22 20 19 19 18 17 18 18 17 15 13 12 11 11 10 9 8 7 6 7 7 8 9 10 12 14 16 18
53 52 51 51 51 51 51 53 56 58 58 59 61 61 60 59 57 55 53 51 49 47 45 44 42 41 40 37 35 33 31 31 31 31 31 31 32 31 30 29 29 29 29 29 29 30 31 32 32 32 32 33 32 31 30 29 28 27 27 25 23 21 20 19 20 19 19 19 18 16 14 13 13 13 12 11 10 9 9 9 10 10 11 11 12 14 17 19
54 53 52 52 51 52 52 53 55 57 58 60 61 62 62 60 59 57 55 53 51 49 47 45 44 43 41 38 36 34 32 32 32 31 31 32 32 32 31 30 29 29 29 29 30 30 31 32 32 33 33 33 32 31 30 29 29 28 28 26 24 22 22 21 21 21 21 20 19 18 15 15 15 14 13 13 13 11 11 11 12 13 14 14 14 15 16 18
54 54 53 52 52 53 53 53 55 57 58 59 62 63 63 62 60 59 57 54 52 51 49 47 46 45 42 39 37 35 34 33 33 32 32 32 33 33 32 31 30 29 29 29 30 30 31 31 32 32 31 31 31 30 31 31 31 29 27 26 24 23 23 22 22 22 22 22 21 19 18 17 17 16 15 16 15 13 12 13 14 16 17 17 17 18 18 19
55 55 54 53 53 53 54 54 54 56 57 59 61 63 63 63 62 60 58 56 54 52 50 48 47 46 44 41 39 37 36 35 33 32 32 32 33 33 33 32 31 30 30 30 30 31 31 31 31 31 30 31 32 32 33 33 31 29 27 26 26 25 24 24 24 24 24 24 22 21 20 19 18 17 18 19 17 14 13 15 16 18 19 19 19 20 21 22
55 56 54 54 53 54 54 55 54 55 56 57 59 62 63 63 62 60 58 57 55 53 52 50 48 48 46 43 41 39 37 36 34 32 32 33 33 33 33 33 32 31 31 30 31 31 31 31 30 31 31 32 33 33 33 32 31 29 29 28 27 27 26 26 26 26 25 25 23 23 24 20 18 19 20 21 20 17 16 18 18 20 21 21 21 21 22 23
54 56 55 55 54 54 55 55 55 55 55 56 58 60 62 62 61 60 58 57 56 54 53 51 50 49 47 44 42 40 38 36 34 33 32 33 33 33 33 33 33 33 32 31 31 31 31 32 32 32 33 33 33 33 33 33 32 32 31 30 29 29 28 28 28 27 26 26 24 25 26 22 19 20 21 22 21 19 19 20 22 23 23 23 22 22 23 25
54 56 56 56 55 54 55 55 55 55 54 55 57 59 61 62 61 60 59 58 57 55 54 52 51 49 47 45 42 40 39 36 35 33 33 33 33 33 34 34 34 33 33 32 31 31 31 32 33 33 33 33 34 34 35 34 34 33 33 32 31 31 31 30 29 28 28 28 27 27 27 23 21 22 23 23 22 21 21 23 25 26 25 25 25 24 24 27
53 56 57 56 56 55 55 55 55 54 54 55 56 58 59 61 62 61 60 60 59 57 55 53 52 50 48 46 43 42 40 38 37 35 34 34 34 34 34 34 34 34 33 33 32 32 32 33 34 34 34 35 35 35 35 35 35 34 34 34 34 33 33 32 32 32 31 30 29 28 28 25 23 24 24 23 22 22 24 26 27 27 27 27 27 27 28 29
53 55 57 57 57 56 56 55 55 54 55 55 56 58 59 60 61 61 60 60 60 59 57 56 53 51 49 47 45 44 42 40 39 38 36 35 35 35 35 35 35 35 35 34 34 34 34 33 34 34 34 35 35 36 36 36 36 36 35 36 36 36 36 35 35 35 34 33 31 31 30 27 24 24 24 23 22 24 27 28 28 28 28 28 29 29 31 32
54 55 56 57 58 57 57 56 56 56 56 56 57 58 59 60 61 61 61 61 62 61 59 57 55 53 51 49 48 46 45 43 41 40 39 38 37 36 36 36 36 36 36 35 35 35 34 34 34 34 34 33 34 36 37 37 37 37 37 37 38 38 38 38 37 37 37 36 33 33 34 31 27 24 25 25 24 26 29 30 29 29 30 30 30 31 33 34
55 55 56 57 58 58 58 57 57 57 56 57 58 59 59 60 61 62 61 63 64 62 60 59 56 54 52 51 49 48 47 46 43 42 41 39 39 38 38 37 37 37 37 36 36 35 34 34 34 33 33 33 34 35 36 38 39 39 39 39 39 40 40 40 40 40 39 38 36 35 36 36 31 26 26 27 28 30 32 31 30 31 32 32 32 34 34 35
57 56 56 57 58 59 59 58 57 57 57 58 59 60 60 60 62 62 62 64 66 63 61 60 57 54 53 52 51 49 49 46 44 44 42 41 40 39 39 38 37 38 38 38 37 36 35 35 35 35 35 35 35 35 36 37 39 39 39 40 40 41 41 41 42 41 41 40 38 37 38 39 35 29 29 30 31 34 35 34 33 33 33 34 35 35 35 34
57 58 57 57 58 60 60 59 58 57 58 59 60 60 61 61 62 62 62 66 67 64 61 60 59 57 55 53 52 51 50 49 47 45 44 44 43 41 40 40 39 40 41 40 38 38 37 38 38 37 36 36 36 36 37 37 38 39 39 40 40 41 41 42 42 42 42 42 40 40 40 40 37 33 33 34 34 37 39 38 37 36 36 36 36 35 34 33
57 59 59 58 59 60 60 59 58 57 57 59 60 61 61 61 62 63 65 67 68 65 63 61 59 58 56 55 53 52 51 51 49 48 47 46 45 43 42 42 41 41 42 41 40 40 39 39 39 38 38 37 36 37 37 38 39 38 39 39 40 40 40 41 41 41 43 43 41 42 42 41 38 33 32 35 35 38 42 41 40 39 39 39 37 34 33 32
56 58 59 59 59 59 58 58 57 57 57 58 60 60 60 61 61 64 67 67 67 67 65 62 60 58 57 56 55 54 52 52 51 50 49 48 47 46 44 44 43 42 43 43 42 41 40 39 39 39 39 38 38 38 39 40 40 40 40 40 40 40 40 40 40 40 43 42 41 42 41 41 39 32 33 38 37 38 42 43 42 41 41 40 38 35 34 32
55 57 59 60 60 59 58 57 56 56 57 58 59 59 60 61 63 65 66 64 67 69 65 62 61 59 58 57 56 56 54 53 52 50 49 49 48 47 45 44 42 41 42 42 42 41 40 40 41 41 41 40 40 40 41 41 41 41 40 40 40 40 40 41 40 41 41 40 40 42 41 40 38 33 35 40 39 39 41 43 44 43 42 42 40 37 35 33
54 55 58 60 60 59 58 57 56 57 58 59 60 60 59 62 65 66 65 65 68 70 65 62 62 60 60 59 58 57 56 55 54 52 50 49 49 48 46 45 44 43 42 42 42 42 43 43 43 43 42 41 40 40 40 40 40 40 40 40 41 41 43 43 42 42 41 40 40 41 41 41 37 34 35 37 38 39 41 44 45 43 42 42 42 40 37 34
55 54 56 58 59 60 59 58 57 57 58 59 60 61 62 63 65 64 65 66 67 68 66 64 64 63 62 61 60 58 57 57 56 55 54 52 51 49 48 46 46 45 44 44 44 44 45 44 43 42 42 41 40 39 39 40 40 41 41 42 43 43 44 44 43 43 42 41 41 41 42 41 37 35 36 37 38 39 41 44 45 43 41 42 43 42 39 34
55 54 55 57 58 60 60 60 60 58 59 60 61 63 65 67 66 65 66 66 66 67 66 65 65 65 64 63 62 60 58 57 56 55 55 54 53 52 49 48 47 45 44 44 44 44 45 44 42 42 42 40 39 39 39 40 40 41 41 42 42 42 42 43 44 44 43 44 44 43 43 41 38 38 38 39 39 40 41 42 42 43 42 41 42 42 39 36
56 56 55 55 56 59 60 61 62 61 60 61 63 66 68 67 65 65 66 65 66 67 67 67 66 65 65 64 63 62 60 60 58 57 56 54 53 52 50 49 48 47 46 45 45 45 45 44 43 42 42 41 40 40 39 39 39 40 40 40 40 40 41 42 44 45 46 47 46 44 44 41 39 39 39 40 41 41 41 42 42 42 42 42 43 42 39 38
53 57 57 56 56 57 59 61 62 63 63 63 65 67 67 67 64 64 64 64 65 66 67 67 66 65 65 64 63 63 62 61 60 60 58 57 56 53 51 50 49 48 47 46 47 47 46 46 45 44 43 43 42 42 41 41 41 42 42 41 41 42 43 43 45 46 46 47 45 43 43 41 39 40 40 40 42 42 43 44 45 44 43 43 42 41 40 40
47 50 53 55 57 57 58 61 62 63 65 65 66 65 64 65 64 64 65 64 64 65 66 67 66 65 64 63 62 61 61 61 61 60 59 59 57 54 52 52 50 48 47 46 47 47 47 47 47 47 46 45 44 44 44 44 44 45 44 43 43 44 44 44 45 45 45 46 45 43 44 43 41 41 41 41 42 43 45 46 47 47 46 44 41 39 39 41
45 45 47 50 55 58 59 61 62 63 66 67 66 65 64 64 62 62 64 64 63 64 65 67 66 64 64 63 62 60 59 59 58 59 59 58 57 54 53 52 50 48 48 47 47 47 47 48 48 48 47 47 46 46 45 45 45 45 44 44 44 44 45 45 45 46 45 46 47 46 46 46 44 42 42 43 43 45 48 49 49 49 48 45 43 39 39 41
49 47 46 45 49 56 59 62 63 65 67 64 61 60 62 63 63 62 62 63 63 64 65 66 66 64 63 62 62 61 60 58 58 57 57 56 55 54 52 51 50 49 47 48 47 47 48 50 50 50 50 50 49 47 45 44 44 44 44 44 45 45 46 47 47 47 47 48 48 49 50 48 45 44 45 47 47 47 50 51 50 50 48 45 45 43 41 41
54 51 48 46 49 53 57 62 66 67 65 60 57 56 58 61 62 60 61 61 61 62 63 65 65 64 62 62 62 62 61 60 59 59 59 57 56 55 54 52 51 50 48 48 49 48 49 50 51 51 52 51 49 47 46 45 45 45 46 47 47 47 48 49 50 51 50 50 50 52 53 50 47 48 47 48 50 49 52 52 51 51 49 46 46 45 43 44
57 56 51 49 50 52 54 59 64 66 65 60 56 56 56 57 58 57 57 59 60 59 60 61 62 61 60 59 59 59 59 59 59 59 59 58 57 55 54 52 50 49 49 48 47 46 46 47 50 52 52 51 50 49 49 49 49 49 50 51 50 51 52 53 54 53 52 53 52 53 56 52 48 49 48 49 51 51 52 52 50 50 50 48 48 47 46 46
58 60 57 52 48 51 57 59 59 60 62 60 57 57 57 55 56 55 55 56 58 58 58 59 59 59 59 57 56 56 56 56 57 57 55 55 54 53 52 52 50 49 49 48 47 47 48 50 52 54 55 54 54 54 54 53 54 54 54 54 53 54 55 54 54 53 54 56 54 57 59 54 50 51 50 50 53 53 51 50 49 51 51 49 50 51 49 48
57 60 62 55 47 49 57 61 60 56 55 57 59 60 59 56 55 55 55 55 55 55 55 56 57 57 56 56 56 56 56 56 57 56 55 54 53 51 50 52 51 50 50 50 48 47 49 50 51 53 55 56 57 58 59 59 59 58 56 55 54 54 54 54 54 54 57 58 57 60 62 58 54 53 52 52 54 54 53 52 51 52 51 50 51 53 51 50
57 59 63 59 50 50 53 55 59 58 55 56 58 59 59 59 58 57 56 56 56 56 56 56 55 55 55 56 56 56 56 55 55 55 55 54 54 52 51 52 52 51 49 49 49 48 49 50 50 52 56 58 61 62 60 57 55 54 54 53 53 53 52 53 53 54 59 60 58 61 64 60 56 55 54 53 53 53 54 54 52 50 50 51 52 54 53 53
58 59 62 61 56 54 53 52 56 61 61 59 59 57 58 59 58 58 59 59 59 59 59 58 57 57 57 57 57 56 55 53 52 53 53 53 53 53 54 54 53 53 51 50 51 51 52 53 53 55 57 59 61 60 56 53 51 52 53 52 52 51 51 52 53 57 62 61 60 62 63 61 58 56 55 54 53 54 55 54 54 53 53 53 54 55 55 56
59 59 61 62 60 58 57 54 55 59 61 62 63 61 60 58 56 58 60 60 60 59 60 59 58 58 57 56 55 54 53 51 51 51 51 51 51 51 52 53 53 53 53 53 54 54 55 56 56 57 58 58 58 57 57 56 56 55 55 53 53 52 52 55 58 62 62 61 62 62 61 61 60 56 55 54 54 55 55 55 57 57 56 55 55 57 58 59
60 60 61 64 64 62 61 58 55 55 58 61 64 67 66 63 61 60 59 59 60 60 60 60 59 58 56 55 55 55 55 55 54 52 51 50 51 52 52 52 53 53 53 55 56 56 57 58 58 57 58 57 57 57 58 59 59 59 58 57 57 56 58 60 63 63 61 61 64 61 59 62 61 58 56 55 54 54 55 56 58 59 59 58 58 61 62 63
61 61 61 63 64 63 62 61 59 57 56 57 60 65 69 69 66 63 60 60 62 63 63 64 63 62 61 60 60 60 60 59 58 55 53 52 53 53 54 54 54 54 55 56 56 57 58 58 58 58 59 58 58 59 60 60 61 62 61 61 61 62 63 65 65 64 62 64 64 61 62 63 61 59 59 57 55 56 57 58 59 60 60 61 63 65 66 66
62 63 63 63 64 63 62 61 61 61 59 58 57 58 63 67 68 67 66 66 65 64 64 64 62 63 65 66 66 66 64 63 61 59 58 56 55 55 55 55 54 54 55 56 56 57 59 59 58 57 59 59 60 60 61 62 62 63 63 64 65 66 67 68 68 66 65 66 65 63 65 64 62 61 60 58 59 60 60 60 61 60 61 63 64 65 66 66
61 63 64 64 64 64 63 62 63 62 60 59 59 57 56 56 60 65 67 66 65 63 63 61 59 61 65 67 68 68 66 65 65 64 63 63 60 58 58 58 56 55 55 56 56 57 58 58 58 58 60 61 60 61 63 63 63 64 66 67 68 70 71 70 69 67 67 67 65 66 67 64 61 61 61 60 62 63 62 62 61 61 62 63 63 63 63 63
61 63 64 66 66 65 64 64 64 63 61 59 58 60 59 55 53 56 59 60 61 60 60 60 60 61 64 65 65 63 63 65 66 67 68 69 67 65 64 62 59 58 58 57 57 58 58 57 58 58 61 61 60 61 62 62 63 67 68 66 67 69 70 70 69 68 67 66 65 67 67 63 61 63 63 62 63 62 61 61 62 62 63 63 63 63 63 62
Wind_Direction
210 209 207 207 208 210 212 208 207 205 197 194 194 193 195 196 195 193 190 189 188 188 190 190 191 192 194 195 197 197 196 196 194 193 192 192 192 190 189 190 190 190 189 189 189 189 190 191 191 194 197 198 198 200 203 206 209 215 224 233 250 260 239 209 195 190 195 223 261 286 294 296 304 315 321 322 322 339 346 333 348 360 349 343 341 345 349 346
210 207 206 205 206 208 209 207 205 203 199 195 194 194 196 197 197 194 191 189 188 188 188 189 189 190 191 193 195 197 197 197 196 195 194 194 193 192 191 191 191 192 192 192 192 192 193 194 196 198 201 202 204 207 208 211 215 221 230 241 248 228 220 221 210 201 217 247 276 289 292 295 306 319 328 329 321 340 353 335 345 1 351 344 340 340 345 345
209 207 205 204 205 207 207 205 204 202 199 196 194 197 197 197 197 194 191 188 187 187 187 188 189 189 189 190 191 193 195 196 197 196 196 195 194 194 193 193 193 194 195 195 195 195 196 196 198 200 204 206 209 212 213 216 220 225 234 243 222 211 221 223 208 211 233 257 277 286 288 292 306 324 345 347 315 336 358 337 337 354 352 341 341 340 343 346
209 207 204 203 203 205 205 203 202 201 200 198 196 198 199 197 195 193 191 189 188 187 188 189 189 189 189 189 189 189 191 193 195 196 196 196 195 195 195 194 195 196 197 198 198 198 199 200 200 202 205 209 212 216 218 220 223 229 234 218 196 211 222 219 211 217 239 261 274 278 278 285 300 323 22 23 303 322 360 342 332 345 354 343 342 345 347 349
209 207 204 202 202 203 204 202 201 201 201 200 196 198 199 196 194 193 192 190 190 190 190 191 190 190 190 190 190 189 189 192 194 195 196 196 196 196 196 196 197 198 199 200 201 201 202 203 204 206 207 210 214 218 221 223 226 230 228 208 204 216 222 221 222 222 239 261 267 268 270 275 284 284 95 104 279 310 358 354 337 338 350 352 348 351 353 354
209 207 204 202 202 202 202 201 200 199 200 201 198 197 198 196 194 193 193 192 192 192 193 193 193 192 191 191 192 191 191 192 193 194 196 196 197 197 197 198 198 199 201 202 203 204 205 205 207 209 210 212 215 218 222 225 229 229 222 211 212 220 221 223 229 230 241 255 258 260 260 262 260 257 132 167 268 305 2 1 347 340 347 358 356 355 356 355
209 207 205 202 201 201 202 201 200 199 198 200 199 197 197 196 195 194 194 194 194 194 195 195 196 195 195 194 194 194 194 193 192 193 195 197 198 198 198 199 200 201 202 203 204 206 208 208 210 211 213 216 217 221 225 229 230 226 217 210 210 216 218 222 230 236 242 246 247 247 248 252 251 254 203 188 268 311 4 358 358 353 351 357 358 355 355 353
209 207 205 202 201 201 201 201 200 199 198 199 199 198 197 196 196 196 196 197 197 197 197 198 198 198 198 197 197 196 196 195 194 193 194 196 198 199 199 200 201 202 203 205 206 207 209 211 213 214 217 219 220 224 228 230 228 221 214 209 209 216 218 223 231 236 239 236 236 237 239 244 247 253 239 208 268 311 346 356 1 2 354 352 354 351 350 349
209 207 206 203 201 200 201 201 200 199 198 198 199 198 197 197 197 198 198 198 199 199 199 200 201 200 200 200 199 198 198 197 196 195 195 195 197 198 199 200 201 203 204 205 207 209 211 212 215 217 219 220 221 225 229 230 225 218 215 210 211 216 219 223 230 234 234 231 230 230 232 236 244 253 251 240 267 307 320 343 355 355 350 345 346 345 345 345
209 207 206 205 202 200 200 201 200 199 199 197 198 198 198 198 198 199 200 200 200 201 201 201 202 202 202 201 199 200 200 199 198 198 197 196 197 198 200 201 202 203 204 206 207 209 211 213 214 215 217 219 221 224 228 227 220 215 215 211 211 215 219 225 229 230 229 227 227 223 227 236 242 251 257 258 270 302 307 320 335 340 341 340 342 340 342 345
209 208 206 205 204 201 200 201 200 200 200 198 198 198 199 199 199 200 201 202 202 203 203 203 203 203 203 202 201 202 201 200 201 200 199 198 198 199 200 201 202 204 205 207 208 210 212 213 214 215 216 218 221 224 226 224 217 215 215 211 211 215 219 225 227 228 228 227 226 221 226 239 245 250 256 262 272 285 290 306 319 326 334 339 341 338 342 346
209 209 207 206 204 203 201 201 201 200 200 199 198 199 200 200 200 201 203 204 205 205 205 205 205 205 204 203 203 203 202 202 202 202 201 201 201 201 201 202 203 205 206 208 209 211 212 214 215 217 216 218 220 222 224 222 216 215 214 212 213 218 220 225 227 227 229 228 227 224 226 241 250 253 257 266 272 267 276 300 313 321 334 339 338 337 342 345
209 210 208 207 205 204 202 201 202 201 201 200 200 200 200 201 201 202 204 205 206 206 207 207 208 207 205 205 205 204 204 205 204 204 204 203 203 203 203 204 205 207 208 209 210 211 213 214 216 217 217 218 219 220 220 218 215 213 213 213 216 220 221 226 228 228 231 230 230 229 227 239 250 255 257 258 260 258 265 287 304 317 326 331 332 335 338 339
209 211 209 207 206 206 204 202 202 202 202 201 201 201 201 202 202 203 205 206 208 208 209 209 210 209 207 207 207 206 206 207 206 206 206 205 205 205 205 206 208 210 210 211 211 212 214 215 216 216 215 217 218 218 217 215 214 213 212 214 218 221 222 227 229 229 232 233 234 232 229 237 245 252 252 241 242 251 257 270 290 307 315 322 326 332 333 332
209 211 210 208 206 207 206 203 202 203 203 202 202 202 203 203 203 204 206 208 209 210 210 211 211 211 209 209 208 207 208 208 208 208 207 207 207 207 207 208 210 212 213 213 213 213 214 216 216 215 215 216 217 217 216 214 213 212 213 216 219 222 223 228 231 230 233 235 237 235 228 232 236 242 248 241 239 247 254 268 283 297 307 315 321 327 326 326
209 211 210 209 207 207 207 205 204 204 204 204 203 204 204 205 205 206 207 208 210 211 212 213 212 212 211 210 210 209 209 210 210 210 209 209 209 209 209 210 212 213 214 215 215 215 215 216 216 216 215 216 216 216 215 214 213 213 215 218 221 223 225 229 233 234 234 235 238 236 226 223 229 236 246 250 248 252 263 273 283 292 299 307 316 321 321 323
209 211 211 209 208 208 208 206 205 205 205 205 204 205 205 206 206 207 208 209 211 212 213 214 213 213 212 211 211 211 211 212 212 211 211 211 210 210 211 212 213 214 215 216 216 216 217 217 217 217 217 217 217 216 216 215 214 215 218 221 222 225 227 229 232 235 237 237 237 236 227 222 227 232 241 250 254 259 267 276 285 290 293 300 308 313 316 320
207 210 211 210 208 208 208 208 207 206 206 206 206 206 206 207 208 208 209 211 212 213 214 215 214 214 213 211 212 213 214 214 214 213 213 213 213 212 213 213 214 215 216 216 217 217 218 219 219 219 218 219 219 218 217 217 217 218 220 224 226 227 230 231 232 234 238 240 239 237 230 228 231 233 236 243 250 258 268 276 282 286 290 296 301 305 310 316
207 209 211 211 209 208 209 209 208 208 207 207 207 207 207 208 209 209 210 211 213 215 215 215 215 215 215 213 213 214 215 216 215 215 215 215 215 215 215 215 216 216 217 218 218 218 219 220 220 220 221 221 221 219 219 218 219 220 221 226 230 231 232 234 235 235 237 240 241 240 233 230 235 238 241 244 246 252 264 275 281 286 291 296 300 304 309 313
208 209 210 211 210 209 209 209 209 209 209 208 208 208 208 209 210 211 212 212 214 216 217 217 217 217 216 215 215 216 217 217 217 217 217 217 217 217 217 217 217 218 218 219 219 220 220 221 222 223 223 223 222 221 220 221 221 223 224 228 232 233 233 234 236 237 238 238 240 243 240 232 234 240 246 252 253 256 264 272 279 285 290 295 299 303 308 310
209 209 210 211 210 210 210 210 209 209 209 210 210 210 210 211 212 213 214 215 215 216 217 218 218 218 217 216 216 217 218 219 219 220 219 219 219 219 219 219 219 219 220 221 221 222 222 223 224 225 225 224 225 224 224 225 225 226 227 229 232 235 236 237 238 239 241 242 241 245 246 238 236 242 248 254 259 263 268 271 275 279 283 289 293 299 303 303
209 210 210 211 211 210 210 210 210 210 210 210 211 211 211 212 213 213 214 216 217 218 219 219 218 219 219 218 218 219 220 220 221 222 222 222 222 222 221 221 221 221 222 222 223 223 224 225 226 227 226 227 228 228 227 228 229 229 229 229 232 236 238 240 242 241 243 246 245 246 250 246 240 244 249 255 260 265 269 273 276 278 283 288 291 295 297 298
209 210 210 211 211 211 211 211 211 210 210 210 211 211 211 212 213 214 215 216 218 219 220 220 220 220 220 219 219 220 222 222 223 223 224 223 224 224 224 223 224 224 223 224 225 225 226 227 228 229 229 229 230 230 230 231 231 232 232 232 233 236 239 242 245 246 246 249 250 250 253 252 248 247 248 254 260 266 269 271 273 278 283 288 291 292 294 297
210 210 210 210 211 211 211 212 211 210 210 210 210 211 211 212 213 214 215 217 218 218 219 220 220 220 221 220 220 221 223 223 223 224 224 225 225 225 225 225 226 226 225 226 226 227 228 228 229 230 231 232 232 233 234 234 235 235 235 236 236 237 241 243 246 249 250 252 255 257 258 256 253 252 252 253 259 265 268 269 273 278 283 287 289 291 293 297
210 211 211 210 211 211 211 211 211 210 209 209 209 210 210 211 212 213 215 217 218 218 219 219 219 220 220 221 221 221 223 224 224 225 225 226 226 226 226 227 227 228 228 227 228 228 229 230 231 232 233 234 235 236 236 237 239 239 238 239 240 240 242 244 247 250 253 255 258 263 265 260 254 255 257 257 258 261 264 266 270 276 280 284 286 289 292 294
210 210 212 211 211 211 211 211 211 210 209 209 209 209 209 210 212 213 214 217 218 218 219 219 219 219 220 221 222 222 223 224 224 226 226 227 227 227 228 228 229 230 230 230 230 231 232 233 234 235 236 237 238 239 240 240 241 241 241 241 243 244 245 246 248 250 254 256 258 262 266 266 260 257 261 265 264 262 262 265 270 274 277 280 284 287 289 291
210 210 211 212 211 212 212 211 211 211 210 210 210 209 210 210 212 213 214 217 218 217 218 219 219 219 221 222 223 223 224 225 226 227 227 228 229 229 229 229 230 232 232 232 232 233 235 236 238 239 239 240 240 242 242 242 243 243 243 244 246 247 248 249 250 252 254 257 259 260 265 269 266 263 266 270 270 268 266 268 271 274 277 280 283 284 286 287
210 210 211 211 212 212 212 212 212 211 211 212 211 210 210 210 212 213 214 217 218 217 218 220 219 219 221 223 224 224 225 226 227 229 230 231 232 232 232 231 231 233 234 233 233 234 235 237 238 238 239 240 241 242 244 245 246 246 246 247 248 249 250 252 252 254 255 257 259 260 263 268 271 273 276 275 274 274 275 276 277 279 281 283 283 284 285 286
212 211 211 211 212 212 212 213 213 213 213 213 213 212 212 212 212 213 214 217 217 217 218 220 220 220 221 223 225 225 226 227 228 229 230 231 232 232 233 232 232 234 235 235 235 234 235 237 238 239 239 241 242 244 245 247 248 249 250 250 251 251 252 254 255 256 258 258 260 261 263 267 271 274 278 279 279 281 282 284 285 286 287 286 285 287 288 289
213 212 211 212 212 212 213 213 214 214 215 215 215 214 215 214 214 215 216 216 218 218 218 220 221 222 223 224 226 226 227 228 229 230 230 232 232 232 233 233 232 234 236 236 236 236 236 238 240 241 242 243 244 246 248 249 251 251 252 253 254 254 255 256 256 258 259 260 261 264 265 268 269 270 276 278 280 282 285 287 289 289 289 288 289 290 291 292
215 213 213 213 212 212 213 213 214 214 215 216 216 216 217 217 217 218 217 216 219 220 219 220 222 223 224 226 228 229 229 230 230 231 232 233 234 234 234 234 234 235 237 238 238 238 239 240 242 244 245 245 245 247 248 249 251 252 253 255 256 257 257 258 258 258 259 260 262 265 266 267 267 272 278 279 281 284 287 289 289 289 289 289 291 293 293 293
216 215 214 214 213 212 212 213 213 214 216 216 217 217 219 219 219 219 217 216 221 223 220 222 224 225 226 227 228 230 230 232 233 233 234 235 236 237 237 238 238 238 240 241 243 243 242 242 243 244 245 246 246 247 249 251 252 254 255 256 258 259 259 259 259 259 259 261 263 265 266 267 268 272 276 279 284 286 286 287 287 289 291 292 294 294 292 292
216 216 216 215 215 214 212 212 213 214 216 217 217 217 218 221 221 220 217 216 221 223 222 223 225 226 227 228 229 230 231 232 233 234 235 236 237 237 237 238 238 239 240 241 242 243 243 243 243 244 246 248 249 251 252 253 254 254 255 255 256 257 258 259 260 260 260 261 262 264 266 267 268 271 273 277 282 284 284 285 286 289 292 294 294 293 293 293
217 217 217 217 217 216 214 213 213 214 215 216 218 218 218 220 221 220 218 219 222 224 223 224 225 226 228 229 230 231 232 233 234 234 234 235 236 237 238 239 239 240 240 241 242 243 245 245 246 247 248 249 251 252 252 252 252 253 253 253 254 257 259 261 261 261 262 261 261 263 265 267 270 273 274 276 278 279 281 283 286 289 290 290 291 291 293 294
222 219 218 218 218 218 217 216 215 215 216 217 218 219 221 222 221 220 220 221 223 225 225 225 226 227 228 229 229 230 232 234 235 236 236 237 238 239 239 240 241 242 242 244 245 246 248 249 250 250 251 251 251 251 251 252 253 253 254 255 257 259 260 261 262 262 263 262 261 262 264 268 272 275 276 277 277 276 277 279 282 285 286 287 287 288 291 293
225 222 220 219 219 219 219 218 217 217 217 218 219 221 223 224 223 223 224 224 225 225 226 227 227 227 228 229 230 231 232 234 235 236 237 238 238 239 240 242 243 244 244 246 247 248 249 250 250 250 251 251 251 251 251 252 253 254 255 257 258 259 258 259 261 261 262 263 263 265 267 269 272 273 274 275 276 276 277 279 280 281 283 284 285 287 290 292
224 223 222 221 221 221 220 220 219 218 218 219 221 223 225 225 224 225 226 227 227 227 228 229 229 229 230 231 231 232 233 235 236 237 238 239 239 239 241 242 243 245 246 247 248 248 249 249 249 250 250 250 250 251 251 252 253 254 256 257 257 257 257 258 260 261 263 265 267 268 269 270 270 270 271 272 275 277 278 279 279 280 280 281 282 285 289 289
220 223 223 222 222 222 223 223 222 221 220 220 222 225 225 225 225 227 227 228 229 229 230 232 232 231 232 233 233 234 235 236 237 239 240 241 241 242 243 244 246 247 248 248 249 249 249 250 250 250 250 250 250 251 252 253 255 256 257 257 256 257 259 260 261 263 265 267 268 268 268 268 268 269 272 273 274 276 277 277 278 279 279 280 280 283 286 286
221 222 223 222 222 223 224 225 226 225 223 223 225 226 226 226 226 227 228 229 229 230 231 234 234 233 233 234 235 236 237 238 239 241 242 243 244 244 245 246 248 249 250 250 251 252 252 252 251 251 251 251 251 252 254 256 257 257 257 257 257 259 260 261 261 263 264 265 266 267 266 267 269 271 273 273 273 274 275 276 277 278 279 281 283 284 284 285
220 219 221 221 221 223 224 225 226 227 227 228 229 229 228 228 226 225 226 228 229 230 232 234 235 235 235 235 236 236 237 238 239 240 242 243 244 244 245 246 248 249 250 250 250 250 251 252 253 253 252 252 254 255 257 257 256 256 256 256 257 258 259 260 260 261 261 262 264 265 266 268 271 272 272 274 274 274 274 275 276 277 279 282 284 285 285 284
216 216 219 222 222 221 222 224 224 227 230 231 231 229 228 228 227 227 227 228 229 230 231 233 234 235 234 234 235 237 238 238 238 239 240 241 243 244 245 245 246 246 246 247 247 249 251 252 253 253 253 255 256 256 255 253 252 253 254 255 256 256 257 257 258 259 259 259 261 264 267 270 271 271 272 273 274 274 273 274 276 277 280 282 284 284 284 282
212 213 215 220 223 222 223 224 224 226 229 230 230 230 229 228 228 228 229 230 231 231 232 234 235 236 236 235 235 236 237 239 239 239 240 242 243 244 244 244 243 243 243 244 246 247 249 249 250 251 252 253 252 251 250 250 250 251 252 254 255 255 256 256 257 258 257 257 259 261 266 272 273 272 273 273 272 272 272 274 277 279 281 282 282 282 282 281
209 209 210 213 217 219 222 224 223 224 227 228 229 230 230 230 229 229 229 231 232 232 233 235 237 238 238 238 237 236 237 239 240 239 240 241 241 241 242 242 242 242 241 242 242 243 243 244 245 247 248 248 248 248 249 249 250 252 253 254 254 255 255 254 254 254 254 256 260 260 264 272 274 272 273 272 272 272 272 275 276 277 279 281 282 282 281 281
213 210 210 212 212 211 216 222 223 224 225 226 227 228 229 229 229 229 229 230 233 234 234 235 237 238 239 239 238 237 236 238 239 239 239 239 238 238 239 240 240 240 241 241 242 243 243 243 244 245 246 245 246 248 250 251 252 253 253 253 252 252 252 251 251 252 253 258 261 260 264 271 272 269 269 268 269 272 274 274 275 276 279 281 282 281 281 282
222 216 213 214 213 208 209 216 221 222 224 225 226 227 228 228 229 229 229 230 232 234 235 235 235 237 239 240 240 238 237 237 238 239 239 239 238 237 238 239 239 240 240 241 242 242 243 243 242 243 244 245 246 249 252 254 254 253 252 251 251 251 250 251 252 252 254 259 259 257 263 269 268 265 265 265 267 270 272 274 275 277 278 278 278 280 281 281
226 223 219 218 218 215 210 209 213 216 219 224 226 227 227 228 229 230 231 231 232 234 236 237 236 236 237 239 240 239 237 236 237 238 238 238 238 237 238 239 239 240 241 241 241 242 242 242 242 243 244 246 248 250 251 251 250 250 250 249 249 249 249 251 251 252 257 260 257 257 263 266 265 265 266 267 269 269 271 273 275 276 275 275 276 278 279 280
227 226 225 224 225 223 219 214 212 212 214 220 225 227 228 228 229 230 230 231 232 233 236 237 237 237 236 238 240 242 240 239 238 238 237 238 238 238 239 239 239 240 241 242 242 242 243 243 244 245 246 247 248 249 249 249 249 250 250 249 249 249 250 250 251 254 258 258 257 260 264 265 266 266 266 267 269 270 272 275 276 276 276 277 278 278 278 279
228 227 227 228 229 230 228 224 219 215 214 217 222 226 229 230 230 231 231 232 233 234 235 236 237 238 238 239 242 245 245 245 244 242 239 239 239 239 239 239 239 239 240 242 243 244 244 245 244 245 246 246 246 248 249 250 251 251 250 250 250 251 251 253 255 257 258 258 260 263 263 263 266 266 266 267 269 271 273 274 275 276 278 279 279 278 279 279
228 228 228 229 231 232 232 231 228 226 222 220 220 223 227 230 231 232 233 235 235 235 235 236 238 240 241 242 243 244 246 247 247 245 243 242 242 241 240 240 239 240 241 243 246 247 248 247 246 246 248 247 245 246 248 250 250 251 251 251 251 252 253 255 257 258 258 259 261 263 263 264 267 268 269 271 271 272 272 272 273 274 276 277 277 278 279 279
228 228 228 229 230 231 232 232 233 233 231 229 224 220 223 228 230 232 235 237 237 237 237 237 238 240 242 243 243 244 245 247 249 249 248 247 245 243 244 244 243 243 245 247 249 251 252 252 250 250 251 249 245 246 248 249 250 251 251 252 253 254 255 256 257 257 258 260 262 264 265 267 269 270 271 272 272 271 271 271 272 272 272 273 274 276 277 278
229 229 228 228 229 230 230 230 231 233 234 235 232 225 221 223 226 229 231 233 235 237 237 237 237 240 242 243 243 245 246 247 248 249 250 250 248 246 246 248 247 247 248 250 251 252 253 254 253 253 255 252 247 247 251 253 255 253 250 252 256 257 257 257 258 258 260 262 264 264 266 268 270 270 269 269 268 268 269 270 271 271 271 272 273 274 275 276
230 230 229 228 228 228 229 229 229 229 230 233 236 233 228 224 223 225 225 226 229 231 233 234 235 238 241 243 245 247 248 248 249 249 249 249 249 249 249 249 248 249 250 250 252 254 254 254 253 253 256 254 250 251 254 257 258 254 250 252 256 257 258 259 260 261 261 262 262 263 265 268 268 267 266 266 266 268 269 270 269 269 270 272 273 273 274 276
Height
5745 5748 5751 5755 5758 5762 5765 5768 5771 5774 5777 5780 5784 5787 5790 5793 5795 5797 5799 5802 5804 5807 5810 5812 5815 5817 5819 5822 5825 5827 5829 5832 5835 5837 5839 5841 5844 5847 5849 5851 5854 5856 5858 5860 5862 5864 5866 5867 5869 5870 5872 5873 5875 5876 5878 5879 5880 5881 5882 5883 5884 5885 5886 5886 5887 5888 5888 5889 5890 5891 5891 5891 5892 5892 5892 5892 5893 5893 5893 5893 5893 5894 5894 5893 5893 5893 5893 5893
5742 5745 5748 5752 5755 5759 5762 5766 5769 5772 5775 5779 5782 5785 5788 5791 5794 5796 5798 5801 5803 5806 5808 5811 5813 5816 5819 5821 5823 5826 5828 5831 5833 5835 5838 5840 5843 5845 5848 5850 5852 5855 5857 5859 5861 5863 5865 5867 5868 5869 5870 5872 5873 5875 5877 5878 5879 5880 5881 5883 5884 5884 5885 5885 5886 5887 5887 5888 5889 5890 5890 5890 5891 5891 5892 5892 5892 5892 5893 5893 5893 5893 5893 5893 5893 5893 5893 5893
5739 5742 5745 5749 5753 5756 5760 5763 5767 5770 5773 5777 5780 5783 5786 5789 5793 5795 5797 5800 5802 5805 5807 5810 5812 5815 5817 5820 5822 5825 5827 5830 5832 5834 5836 5839 5841 5844 5846 5848 5851 5853 5856 5857 5859 5861 5863 5865 5866 5868 5870 5871 5872 5874 5875 5877 5878 5879 5880 5882 5883 5883 5883 5884 5886 5886 5887 5888 5888 5889 5889 5889 5890 5891 5891 5891 5891 5892 5892 5892 5892 5893 5893 5893 5893 5893 5893 5893
5736 5739 5743 5746 5750 5754 5757 5761 5764 5768 5771 5775 5778 5782 5785 5788 5791 5794 5796 5799 5801 5804 5806 5809 5811 5814 5816 5819 5821 5823 5826 5828 5830 5832 5835 5837 5840 5842 5845 5847 5849 5852 5854 5856 5858 5860 5862 5863 5865 5867 5869 5870 5871 5873 5874 5876 5877 5878 5880 5881 5882 5882 5882 5883 5885 5885 5886 5887 5887 5888 5888 5889 5889 5890 5891 5891 5891 5891 5892 5892 5892 5892 5893 5892 5892 5892 5892 5892
5733 5736 5740 5743 5747 5751 5755 5758 5762 5766 5769 5773 5776 5780 5783 5786 5789 5792 5795 5797 5800 5802 5805 5808 5810 5812 5815 5817 5820 5822 5824 5826 5828 5831 5833 5835 5838 5840 5843 5845 5847 5850 5853 5855 5857 5859 5860 5862 5864 5865 5867 5869 5870 5872 5873 5875 5876 5877 5879 5880 5880 5880 5881 5882 5884 5885 5886 5886 5887 5887 5887 5888 5889 5889 5890 5890 5890 5891 5892 5892 5891 5891 5892 5892 5892 5892 5892 5892
5729 5733 5737 5740 5744 5748 5752 5756 5760 5764 5767 5771 5774 5778 5781 5785 5788 5791 5794 5796 5799 5801 5804 5806 5809 5811 5814 5816 5819 5821 5823 5825 5827 5829 5831 5834 5836 5839 5841 5843 5846 5848 5851 5853 5855 5857 5859 5860 5862 5864 5865 5867 5868 5870 5872 5873 5874 5876 5878 5879 5879 5879 5880 5881 5882 5884 5885 5885 5886 5886 5887 5887 5888 5888 5890 5890 5890 5890 5891 5891 5891 5891 5891 5891 5891 5891 5891 5891
5726 5730 5734 5737 5741 5745 5749 5753 5757 5761 5765 5768 5772 5776 5779 5783 5786 5789 5792 5795 5797 5799 5802 5805 5807 5810 5812 5815 5817 5820 5822 5824 5826 5828 5830 5833 5835 5837 5840 5842 5844 5847 5849 5851 5853 5855 5857 5859 5860 5862 5864 5865 5867 5869 5870 5872 5873 5875 5876 5877 5878 5878 5879 5880 5881 5883 5883 5884 5885 5885 5886 5886 5887 5888 5889 5889 5889 5890 5891 5891 5891 5891 5891 5891 5891 5891 5891 5891
5723 5727 5730 5734 5738 5742 5746 5750 5755 5759 5763 5766 5770 5774 5777 5781 5784 5787 5790 5793 5795 5798 5800 5803 5806 5808 5811 5813 5815 5818 5820 5822 5825 5826 5829 5831 5833 5836 5838 5841 5843 5845 5847 5849 5852 5854 5855 5857 5859 5861 5863 5865 5867 5868 5869 5870 5872 5874 5875 5876 5876 5877 5878 5879 5880 5881 5882 5883 5884 5884 5885 5885 5886 5887 5888 5888 5889 5889 5890 5890 5890 5890 5890 5890 5890 5890 5890 5890
5721 5724 5727 5731 5735 5739 5743 5748 5752 5756 5760 5764 5768 5772 5775 5779 5782 5785 5788 5791 5794 5796 5799 5801 5804 5806 5809 5811 5814 5816 5818 5821 5823 5825 5827 5829 5832 5834 5836 5839 5841 5843 5845 5848 5850 5852 5854 5856 5858 5860 5862 5863 5865 5866 5867 5868 5871 5872 5873 5874 5875 5875 5877 5878 5879 5880 5881 5882 5883 5883 5884 5884 5885 5886 5887 5887 5888 5888 5889 5889 5890 5890 5889 5889 5889 5889 5889 5889
5718 5721 5724 5728 5732 5736 5740 5745 5749 5753 5758 5762 5766 5769 5773 5776 5780 5783 5786 5789 5791 5794 5797 5799 5802 5804 5807 5809 5812 5814 5816 5819 5821 5823 5826 5828 5830 5832 5835 5837 5839 5841 5843 5846 5848 5850 5852 5854 5856 5858 5860 5861 5863 5864 5865 5867 5870 5871 5871 5872 5873 5874 5876 5877 5878 5879 5880 5881 5882 5883 5883 5883 5884 5885 5886 5886 5887 5887 5888 5888 5888 5889 5889 5888 5888 5888 5888 5888
5715 5718 5721 5725 5729 5733 5737 5741 5746 5750 5755 5759 5763 5767 5770 5774 5777 5780 5784 5786 5789 5792 5795 5797 5800 5802 5805 5808 5810 5812 5814 5817 5819 5821 5824 5826 5828 5831 5833 5835 5837 5839 5841 5844 5846 5848 5850 5852 5854 5855 5857 5859 5861 5862 5863 5866 5868 5868 5869 5870 5872 5873 5874 5875 5876 5877 5878 5879 5880 5881 5882 5882 5883 5884 5885 5885 5886 5886 5886 5887 5887 5887 5888 5887 5887 5887 5887 5887
5712 5715 5718 5722 5726 5730 5734 5738 5743 5747 5752 5756 5760 5764 5767 5771 5774 5778 5781 5784 5787 5789 5792 5795 5797 5800 5803 5805 5807 5810 5812 5814 5817 5820 5822 5824 5827 5829 5831 5834 5836 5837 5839 5842 5844 5846 5848 5849 5851 5853 5855 5857 5858 5860 5862 5864 5866 5867 5867 5869 5870 5872 5873 5874 5875 5876 5877 5878 5879 5880 5881 5881 5882 5883 5884 5884 5885 5885 5885 5886 5886 5886 5886 5886 5886 5886 5886 5886
5709 5712 5715 5719 5723 5727 5730 5735 5740 5744 5748 5753 5757 5761 5764 5768 5771 5774 5778 5781 5784 5787 5790 5793 5795 5798 5800 5803 5805 5808 5810 5813 5815 5818 5820 5822 5825 5827 5829 5832 5834 5835 5837 5840 5842 5844 5845 5847 5849 5851 5854 5855 5856 5858 5860 5862 5864 5865 5866 5868 5869 5870 5871 5872 5873 5875 5876 5877 5878 5879 5880 5880 5881 5882 5882 5883 5883 5884 5884 5885 5885 5885 5885 5885 5885 5885 5885 5885
5705 5709 5713 5716 5720 5723 5727 5731 5736 5741 5745 5749 5753 5757 5761 5764 5768 5771 5774 5778 5781 5784 5787 5790 5793 5795 5798 5800 5803 5806 5808 5810 5813 5815 5818 5820 5822 5825 5827 5829 5831 5833 5835 5837 5839 5841 5843 5845 5847 5850 5851 5853 5854 5856 5858 5860 5861 5863 5864 5866 5867 5868 5870 5870 5871 5873 5874 5875 5876 5877 5878 5879 5879 5880 5881 5882 5882 5883 5883 5883 5884 5884 5884 5884 5884 5884 5884 5883
5702 5706 5710 5713 5717 5721 5724 5728 5732 5737 5742 5746 5750 5754 5758 5761 5764 5768 5771 5775 5778 5781 5784 5787 5790 5793 5795 5798 5800 5803 5806 5808 5810 5813 5815 5818 5820 5822 5824 5827 5829 5831 5833 5835 5837 5839 5841 5843 5845 5847 5849 5850 5852 5854 5856 5857 5859 5861 5863 5864 5865 5867 5868 5869 5870 5871 5872 5873 5874 5875 5877 5877 5878 5878 5879 5880 5881 5881 5882 5882 5882 5883 5883 5883 5883 5883 5882 5882
5699 5702 5706 5710 5714 5717 5721 5725 5729 5733 5738 5742 5746 5750 5754 5758 5761 5765 5768 5772 5775 5778 5781 5784 5787 5790 5793 5795 5798 5801 5803 5805 5808 5810 5813 5815 5817 5819 5822 5824 5826 5828 5830 5833 5835 5837 5839 5841 5842 5845 5847 5848 5850 5851 5853 5855 5857 5859 5860 5862 5863 5865 5866 5867 5868 5869 5870 5871 5872 5873 5875 5876 5876 5877 5877 5878 5879 5880 5880 5880 5881 5881 5882 5882 5882 5881 5880 5880
5695 5699 5703 5706 5710 5714 5718 5721 5725 5729 5733 5738 5742 5746 5750 5754 5758 5761 5765 5768 5772 5775 5778 5781 5784 5787 5790 5793 5796 5799 5801 5803 5805 5808 5810 5812 5814 5817 5819 5821 5823 5826 5828 5830 5832 5834 5836 5838 5840 5842 5844 5846 5847 5849 5851 5853 5855 5857 5858 5860 5862 5863 5864 5865 5866 5867 5868 5869 5870 5871 5873 5874 5874 5875 5876 5876 5877 5878 5878 5879 5879 5879 5880 5880 5881 5880 5879 5878
5691 5695 5699 5703 5707 5711 5714 5718 5721 5725 5729 5734 5738 5742 5746 5751 5755 5758 5762 5765 5769 5772 5775 5778 5782 5784 5787 5791 5794 5796 5798 5800 5802 5805 5807 5810 5812 5814 5816 5818 5821 5823 5825 5827 5830 5832 5834 5836 5838 5840 5842 5844 5846 5848 5850 5852 5853 5855 5856 5858 5860 5861 5862 5863 5864 5865 5866 5867 5868 5869 5871 5872 5872 5873 5874 5874 5875 5876 5877 5877 5877 5877 5878 5878 5879 5879 5878 5878
5686 5691 5695 5699 5703 5707 5710 5714 5718 5721 5725 5730 5734 5738 5743 5747 5751 5755 5758 5762 5765 5769 5772 5775 5779 5782 5786 5790 5792 5794 5796 5798 5800 5803 5805 5807 5809 5812 5814 5816 5819 5821 5823 5825 5827 5830 5832 5834 5836 5838 5840 5842 5844 5846 5847 5848 5850 5852 5855 5856 5857 5859 5860 5861 5862 5863 5864 5864 5866 5867 5868 5869 5870 5871 5872 5872 5873 5874 5875 5875 5875 5875 5875 5876 5876 5876 5876 5876
5683 5687 5691 5695 5699 5703 5707 5710 5714 5718 5722 5727 5731 5735 5739 5743 5747 5751 5755 5759 5762 5766 5769 5773 5777 5779 5783 5786 5789 5791 5793 5795 5798 5800 5803 5805 5807 5809 5812 5814 5816 5819 5821 5823 5825 5827 5829 5832 5834 5836 5838 5840 5841 5843 5844 5846 5848 5851 5853 5854 5855 5856 5857 5858 5859 5860 5861 5862 5864 5864 5865 5867 5868 5869 5869 5869 5870 5872 5873 5873 5872 5872 5872 5873 5873 5873 5873 5873
5679 5683 5688 5692 5696 5700 5703 5706 5710 5715 5719 5724 5728 5733 5737 5742 5745 5749 5754 5756 5759 5762 5765 5769 5772 5775 5779 5783 5786 5788 5791 5793 5796 5798 5800 5802 5805 5807 5809 5812 5814 5816 5818 5820 5822 5825 5827 5829 5832 5833 5835 5837 5838 5840 5842 5844 5846 5848 5850 5851 5852 5853 5854 5855 5856 5858 5858 5859 5861 5862 5861 5864 5866 5867 5867 5867 5867 5869 5870 5870 5870 5870 5871 5871 5871 5871 5871 5871
5675 5680 5684 5688 5692 5696 5699 5703 5707 5711 5716 5721 5725 5730 5734 5738 5742 5746 5750 5752 5755 5759 5761 5765 5769 5772 5776 5780 5783 5786 5788 5791 5794 5796 5798 5800 5803 5805 5807 5809 5811 5813 5816 5818 5820 5822 5824 5827 5828 5830 5832 5834 5835 5837 5840 5842 5844 5845 5847 5848 5849 5850 5852 5852 5853 5855 5856 5856 5858 5858 5858 5861 5864 5864 5864 5864 5865 5867 5868 5868 5867 5867 5868 5868 5869 5869 5869 5868
5671 5676 5680 5684 5688 5692 5696 5700 5704 5709 5713 5718 5722 5725 5729 5734 5738 5741 5744 5747 5750 5754 5758 5762 5765 5768 5772 5776 5780 5783 5785 5788 5791 5793 5795 5798 5800 5802 5804 5807 5808 5810 5813 5815 5817 5819 5822 5823 5825 5827 5829 5831 5833 5835 5836 5838 5840 5842 5843 5845 5846 5847 5848 5849 5850 5852 5853 5853 5854 5855 5855 5858 5861 5862 5862 5862 5863 5864 5865 5864 5864 5864 5865 5865 5866 5867 5866 5866
5668 5672 5676 5681 5685 5689 5693 5697 5701 5706 5710 5714 5717 5721 5725 5729 5732 5736 5739 5741 5745 5749 5753 5757 5760 5764 5768 5772 5776 5779 5782 5785 5788 5790 5792 5795 5797 5799 5801 5803 5805 5807 5810 5812 5814 5816 5818 5819 5822 5824 5826 5828 5830 5831 5833 5835 5837 5839 5840 5842 5843 5844 5845 5846 5847 5848 5849 5850 5851 5851 5851 5853 5857 5857 5858 5860 5861 5862 5861 5860 5861 5861 5862 5863 5863 5863 5863 5862
5664 5668 5672 5677 5681 5685 5689 5693 5699 5702 5706 5709 5712 5716 5720 5723 5727 5730 5733 5736 5739 5743 5746 5751 5756 5759 5763 5768 5772 5775 5778 5781 5784 5786 5789 5791 5793 5796 5798 5799 5802 5804 5806 5808 5810 5812 5814 5816 5818 5821 5822 5825 5826 5828 5830 5832 5833 5835 5837 5838 5839 5841 5842 5843 5845 5845 5846 5847 5848 5848 5847 5848 5852 5854 5855 5857 5859 5859 5858 5857 5858 5859 5859 5860 5860 5860 5860 5859
5660 5664 5669 5673 5677 5681 5685 5690 5694 5697 5701 5705 5707 5711 5715 5718 5721 5725 5728 5729 5732 5737 5742 5747 5751 5755 5760 5764 5767 5771 5773 5776 5779 5782 5785 5787 5789 5792 5794 5796 5798 5800 5803 5805 5807 5809 5811 5813 5815 5817 5820 5822 5823 5825 5826 5828 5829 5831 5833 5835 5836 5837 5838 5840 5841 5842 5842 5844 5845 5846 5844 5842 5845 5850 5852 5853 5855 5855 5854 5854 5856 5857 5857 5857 5857 5856 5856 5855
5655 5660 5664 5669 5673 5678 5682 5686 5689 5694 5698 5700 5703 5707 5710 5713 5715 5719 5722 5722 5725 5733 5738 5742 5747 5752 5757 5759 5763 5767 5769 5772 5776 5778 5780 5783 5785 5788 5790 5792 5795 5796 5799 5801 5803 5806 5808 5810 5812 5815 5816 5818 5820 5821 5822 5823 5825 5826 5829 5831 5832 5833 5834 5836 5837 5838 5839 5840 5842 5843 5842 5838 5838 5844 5848 5849 5850 5849 5849 5851 5853 5853 5853 5854 5854 5853 5852 5851
5651 5655 5660 5664 5669 5673 5677 5681 5686 5690 5693 5695 5698 5702 5704 5707 5710 5713 5714 5714 5720 5729 5733 5738 5744 5749 5752 5754 5758 5762 5765 5770 5772 5774 5777 5780 5781 5784 5786 5789 5791 5792 5794 5797 5800 5803 5805 5806 5808 5810 5812 5814 5816 5817 5818 5819 5821 5823 5825 5826 5828 5829 5830 5831 5833 5835 5836 5837 5838 5839 5840 5837 5834 5838 5843 5843 5844 5843 5843 5847 5848 5849 5850 5850 5849 5848 5848 5847
5647 5651 5656 5659 5663 5668 5673 5677 5682 5685 5687 5690 5693 5695 5699 5702 5703 5706 5706 5707 5717 5725 5730 5735 5740 5743 5746 5750 5754 5758 5762 5765 5767 5770 5773 5774 5777 5780 5782 5785 5787 5788 5789 5793 5796 5799 5801 5802 5804 5806 5808 5811 5812 5813 5814 5816 5817 5819 5821 5822 5823 5825 5826 5827 5828 5831 5832 5833 5834 5835 5837 5837 5833 5834 5837 5837 5838 5837 5837 5840 5841 5843 5844 5843 5843 5843 5843 5843
5643 5647 5651 5654 5659 5664 5669 5673 5677 5679 5682 5684 5686 5690 5693 5694 5696 5697 5696 5704 5716 5722 5726 5731 5735 5739 5743 5746 5749 5753 5757 5759 5762 5765 5768 5769 5772 5775 5777 5780 5783 5784 5786 5789 5791 5794 5797 5799 5800 5802 5805 5807 5809 5810 5811 5812 5813 5815 5816 5817 5819 5820 5822 5823 5825 5827 5828 5828 5831 5830 5833 5835 5832 5832 5833 5833 5834 5833 5832 5834 5836 5836 5837 5836 5837 5838 5838 5837
5639 5643 5647 5651 5655 5660 5664 5667 5670 5673 5675 5677 5681 5685 5686 5688 5689 5687 5692 5709 5716 5716 5722 5727 5731 5736 5740 5743 5746 5749 5752 5754 5757 5760 5763 5766 5768 5771 5773 5775 5778 5780 5782 5784 5787 5790 5793 5795 5797 5798 5801 5803 5804 5806 5806 5807 5809 5810 5812 5813 5814 5815 5817 5819 5821 5823 5823 5824 5827 5826 5828 5830 5830 5831 5831 5828 5829 5830 5828 5828 5829 5829 5830 5830 5831 5832 5832 5832
5635 5638 5643 5647 5650 5654 5657 5660 5664 5666 5668 5672 5675 5677 5679 5681 5680 5682 5697 5711 5709 5708 5720 5726 5729 5734 5737 5739 5741 5744 5747 5750 5753 5757 5760 5762 5764 5767 5770 5772 5775 5777 5779 5782 5784 5787 5789 5790 5792 5794 5795 5798 5799 5801 5802 5803 5805 5806 5808 5809 5810 5811 5813 5814 5817 5818 5819 5821 5822 5821 5823 5824 5826 5829 5828 5824 5825 5827 5825 5823 5823 5823 5823 5823 5825 5826 5827 5827
5630 5634 5638 5642 5645 5649 5651 5654 5657 5659 5662 5667 5668 5670 5672 5671 5673 5685 5701 5705 5700 5706 5719 5724 5726 5729 5730 5733 5736 5738 5742 5744 5748 5752 5755 5757 5759 5762 5765 5768 5771 5773 5775 5778 5779 5781 5783 5784 5787 5789 5791 5793 5795 5797 5798 5800 5801 5802 5804 5805 5805 5806 5808 5810 5812 5812 5815 5818 5817 5817 5818 5819 5821 5825 5825 5824 5823 5822 5820 5819 5818 5819 5819 5818 5818 5819 5820 5822
5626 5630 5633 5637 5640 5642 5644 5647 5650 5653 5657 5660 5661 5663 5663 5664 5674 5689 5697 5698 5698 5705 5715 5718 5720 5722 5723 5727 5731 5734 5737 5739 5742 5746 5748 5751 5753 5757 5760 5763 5766 5768 5771 5773 5774 5776 5777 5780 5784 5786 5788 5790 5791 5792 5793 5794 5795 5797 5798 5799 5800 5803 5804 5805 5806 5807 5810 5812 5812 5813 5814 5814 5818 5821 5821 5821 5821 5819 5817 5815 5814 5815 5816 5814 5813 5813 5814 5816
5622 5626 5628 5632 5635 5637 5640 5642 5644 5648 5651 5653 5654 5655 5656 5663 5678 5688 5691 5694 5697 5702 5709 5712 5713 5715 5717 5721 5724 5728 5731 5734 5737 5740 5742 5746 5749 5753 5756 5759 5761 5764 5766 5769 5771 5773 5774 5776 5780 5781 5783 5786 5786 5787 5788 5789 5791 5792 5793 5795 5797 5800 5800 5800 5800 5802 5804 5805 5806 5809 5809 5812 5815 5816 5815 5816 5815 5815 5814 5813 5812 5811 5811 5811 5809 5808 5809 5811
5617 5621 5624 5628 5631 5633 5634 5636 5639 5642 5645 5646 5646 5647 5654 5668 5681 5686 5688 5691 5694 5698 5702 5702 5704 5707 5710 5714 5718 5723 5726 5729 5732 5734 5737 5741 5744 5748 5751 5754 5757 5759 5762 5765 5766 5768 5769 5772 5774 5776 5778 5780 5780 5781 5783 5784 5786 5787 5789 5792 5794 5795 5795 5794 5795 5796 5797 5797 5801 5805 5806 5809 5812 5811 5811 5810 5809 5809 5809 5808 5809 5808 5807 5807 5805 5804 5805 5805
5611 5615 5619 5624 5627 5628 5629 5631 5634 5636 5638 5639 5639 5646 5658 5671 5679 5680 5683 5685 5687 5692 5694 5694 5698 5702 5705 5709 5714 5718 5722 5724 5725 5728 5732 5735 5738 5743 5747 5750 5752 5754 5758 5760 5760 5762 5764 5766 5768 5770 5772 5774 5775 5776 5778 5780 5781 5782 5785 5788 5788 5788 5789 5789 5789 5791 5792 5791 5795 5800 5801 5804 5806 5805 5806 5806 5804 5804 5804 5803 5803 5803 5803 5803 5802 5802 5801 5800
5607 5610 5614 5619 5622 5623 5624 5625 5628 5631 5632 5632 5636 5647 5658 5667 5672 5673 5675 5679 5681 5685 5688 5688 5692 5697 5701 5705 5710 5714 5717 5718 5720 5723 5727 5729 5733 5740 5744 5745 5748 5751 5754 5754 5753 5756 5759 5760 5762 5765 5766 5768 5769 5770 5773 5775 5777 5778 5780 5782 5782 5782 5783 5784 5784 5786 5787 5787 5789 5794 5795 5797 5800 5801 5802 5802 5801 5800 5799 5798 5797 5797 5797 5798 5798 5799 5798 5796
5603 5605 5609 5613 5616 5619 5620 5620 5623 5625 5624 5626 5635 5647 5656 5663 5666 5665 5667 5672 5674 5679 5682 5681 5685 5691 5695 5700 5704 5707 5710 5713 5716 5719 5721 5724 5730 5736 5740 5741 5744 5747 5748 5748 5748 5750 5753 5754 5756 5759 5761 5762 5763 5765 5769 5771 5771 5772 5774 5775 5776 5777 5778 5779 5779 5780 5782 5781 5783 5787 5789 5791 5795 5797 5797 5797 5797 5796 5793 5792 5792 5792 5792 5791 5792 5794 5794 5792
5598 5600 5604 5609 5611 5613 5615 5616 5617 5616 5617 5625 5637 5647 5653 5657 5656 5655 5659 5665 5668 5672 5675 5675 5678 5683 5689 5694 5698 5700 5704 5707 5710 5713 5716 5720 5725 5730 5734 5736 5739 5742 5742 5741 5742 5744 5745 5747 5749 5752 5753 5755 5758 5762 5765 5766 5765 5766 5768 5769 5771 5772 5772 5772 5773 5774 5776 5776 5777 5779 5781 5787 5791 5792 5792 5790 5790 5791 5788 5786 5786 5786 5787 5787 5787 5787 5788 5787
5592 5596 5600 5604 5605 5608 5609 5609 5609 5610 5615 5625 5634 5640 5644 5646 5647 5651 5656 5660 5662 5665 5668 5668 5670 5675 5682 5687 5691 5695 5697 5699 5703 5707 5709 5714 5719 5724 5729 5732 5733 5735 5734 5733 5735 5738 5739 5741 5743 5744 5746 5751 5755 5757 5757 5757 5758 5760 5762 5763 5765 5766 5765 5765 5765 5767 5769 5769 5771 5772 5774 5783 5786 5786 5787 5786 5784 5784 5781 5780 5780 5780 5781 5782 5781 5781 5781 5781
5586 5592 5597 5599 5599 5603 5604 5602 5603 5608 5613 5621 5629 5633 5636 5639 5643 5647 5652 5654 5656 5659 5662 5662 5665 5670 5675 5680 5685 5689 5691 5693 5697 5700 5704 5709 5715 5720 5723 5725 5725 5726 5727 5727 5730 5734 5734 5734 5735 5737 5741 5745 5746 5747 5748 5749 5751 5753 5755 5757 5759 5758 5758 5758 5758 5761 5761 5762 5767 5766 5767 5777 5781 5779 5781 5781 5778 5777 5774 5774 5775 5775 5775 5776 5774 5774 5774 5774
5582 5587 5591 5593 5594 5597 5597 5594 5597 5603 5609 5618 5624 5626 5629 5634 5638 5642 5646 5648 5649 5653 5656 5657 5660 5665 5669 5674 5679 5682 5685 5687 5689 5694 5700 5704 5709 5714 5715 5716 5717 5719 5720 5721 5724 5726 5726 5725 5727 5730 5733 5735 5736 5738 5741 5742 5744 5746 5748 5751 5752 5751 5752 5752 5751 5753 5753 5755 5761 5759 5759 5770 5775 5773 5774 5774 5770 5769 5769 5769 5770 5768 5768 5769 5768 5766 5767 5766
5576 5580 5584 5586 5588 5590 5589 5588 5592 5599 5607 5613 5616 5618 5622 5628 5631 5636 5640 5642 5644 5647 5650 5653 5656 5659 5663 5667 5671 5675 5679 5681 5683 5688 5694 5697 5702 5707 5707 5708 5710 5711 5714 5717 5719 5720 5718 5719 5722 5723 5725 5727 5729 5731 5734 5736 5738 5739 5742 5745 5745 5746 5746 5744 5745 5746 5744 5750 5756 5751 5750 5763 5769 5767 5768 5767 5764 5763 5762 5763 5763 5763 5763 5763 5760 5758 5758 5759
5568 5572 5576 5579 5581 5582 5583 5585 5590 5596 5602 5605 5607 5612 5617 5620 5624 5629 5633 5636 5639 5641 5643 5647 5651 5655 5658 5660 5663 5667 5671 5675 5679 5683 5687 5691 5696 5699 5700 5701 5703 5705 5709 5711 5712 5712 5711 5713 5715 5716 5716 5719 5722 5726 5730 5733 5732 5732 5736 5739 5739 5740 5739 5738 5740 5738 5737 5745 5748 5741 5743 5755 5761 5759 5759 5760 5760 5759 5757 5756 5757 5758 5758 5756 5753 5751 5752 5752
5561 5564 5568 5571 5573 5574 5577 5581 5584 5589 5594 5598 5601 5606 5610 5613 5618 5623 5626 5629 5633 5634 5636 5640 5645 5648 5650 5652 5655 5659 5664 5670 5674 5677 5680 5684 5688 5691 5692 5694 5697 5700 5703 5704 5704 5704 5704 5705 5708 5709 5711 5714 5719 5723 5725 5725 5724 5725 5729 5731 5731 5732 5732 5732 5731 5729 5733 5738 5736 5735 5741 5747 5751 5753 5752 5754 5755 5753 5752 5751 5751 5751 5750 5749 5748 5746 5746 5745
5554 5558 5562 5565 5566 5568 5571 5575 5578 5583 5589 5593 5596 5600 5603 5608 5613 5615 5617 5622 5627 5630 5632 5634 5637 5641 5644 5648 5651 5654 5659 5664 5667 5670 5674 5677 5681 5684 5685 5688 5691 5693 5695 5696 5696 5697 5697 5698 5702 5704 5706 5710 5715 5717 5716 5715 5716 5719 5722 5723 5723 5725 5725 5724 5722 5725 5731 5727 5724 5734 5739 5736 5742 5747 5746 5748 5748 5745 5747 5746 5743 5742 5741 5741 5741 5739 5739 5739
5548 5553 5556 5558 5559 5562 5565 5570 5575 5580 5584 5586 5589 5593 5597 5602 5604 5607 5612 5618 5621 5623 5626 5627 5631 5635 5640 5645 5647 5648 5652 5655 5658 5663 5668 5671 5674 5676 5678 5681 5683 5685 5688 5688 5688 5690 5690 5691 5696 5699 5700 5704 5709 5710 5708 5709 5710 5712 5713 5715 5717 5718 5717 5716 5716 5722 5725 5717 5718 5732 5733 5726 5735 5740 5737 5742 5743 5740 5741 5740 5736 5734 5733 5733 5732 5731 5731 5731
5542 5546 5549 5551 5554 5558 5561 5565 5570 5573 5576 5579 5582 5587 5591 5595 5598 5603 5608 5611 5612 5616 5619 5621 5626 5631 5635 5638 5640 5641 5643 5646 5649 5655 5660 5664 5667 5669 5671 5673 5675 5679 5681 5680 5681 5683 5683 5686 5691 5693 5693 5697 5702 5703 5702 5702 5702 5703 5704 5707 5709 5710 5710 5710 5711 5715 5716 5710 5714 5724 5722 5720 5730 5731 5730 5736 5738 5734 5734 5733 5731 5729 5727 5725 5724 5724 5723 5721
5536 5539 5543 5545 5548 5552 5555 5559 5563 5565 5568 5572 5576 5581 5586 5589 5594 5598 5601 5603 5605 5610 5614 5617 5623 5627 5628 5630 5632 5634 5638 5641 5644 5647 5651 5655 5659 5661 5664 5666 5669 5673 5674 5675 5676 5677 5677 5680 5684 5687 5686 5687 5694 5697 5694 5693 5693 5694 5696 5699 5702 5703 5702 5702 5704 5707 5707 5705 5709 5715 5713 5716 5725 5724 5724 5729 5729 5725 5725 5724 5723 5722 5720 5718 5719 5719 5716 5712
5529 5532 5535 5538 5541 5545 5548 5552 5556 5559 5561 5564 5569 5576 5580 5584 5590 5593 5594 5596 5600 5605 5608 5613 5619 5621 5621 5622 5624 5628 5634 5637 5639 5642 5643 5645 5649 5654 5656 5657 5662 5665 5666 5668 5669 5670 5672 5674 5677 5679 5676 5678 5688 5690 5685 5684 5686 5685 5688 5692 5695 5695 5693 5693 5695 5699 5700 5701 5704 5706 5705 5712 5719 5718 5717 5720 5718 5716 5718 5717 5714 5712 5712 5712 5713 5712 5709 5707
5521 5523 5526 5529 5533 5537 5540 5544 5548 5551 5554 5558 5564 5569 5573 5579 5583 5583 5584 5589 5594 5599 5603 5608 5612 5613 5612 5615 5619 5624 5628 5631 5633 5636 5636 5637 5640 5644 5646 5649 5654 5657 5658 5660 5662 5662 5665 5667 5670 5671 5667 5671 5681 5680 5676 5677 5674 5672 5681 5690 5691 5687 5685 5685 5688 5691 5693 5694 5695 5694 5697 5707 5711 5706 5706 5710 5709 5708 5711 5709 5704 5702 5704 5705 5705 5704 5703 5704